Location: Unspecified
(51.0000°N, 12.0000°E)
Time: 12:07:17
(UTC+01:00)

ISS - Pass Details

Date: 10 January 2018
Orbit: 402 x 407 km, 51.6° (Epoch: 19 January)

Event Time Altitude Azimuth Distance (km) Brightness Sun altitude
Exits shadow 06:31:24 32° 262° (W) 726 -3.1 -15.1°
Maximum altitude 06:32:35 52° 203° (SSW) 514 -3.4 -14.9°
Drops below altitude 10° 06:35:48 10° 126° (SE) 1,466 0.2 -14.4°
Sets 06:37:54 0° 121° (ESE) 2,324 1.7 -14.1°
